When you browse on this site, cookies collect data to enhance your experience and personalize the content and advertising you see.
Visit our Privacy Policy to learn more. By continuing to use the site, you agree to this use of cookies and data.
  • In Lithuania
  • List of Countries
  • For 7 days
  • Water Temperature
  • Weather Map
  • Weather Widgets
  • user-avatar
    Login

    Hourly Weather Kitzbuhel

    Today, 17 August, Saturday

    Time Temperature Precipitation Wind Pressure Humidity
    00:00 +12°C° 0 mm 2 mps 678 mmHg 84%
    01:00 +12°C° 0 mm 2 mps 678 mmHg 83%
    02:00 +12°C° 0 mm 2 mps 678 mmHg 82%
    03:00 +12°C° 0 mm 2 mps 677 mmHg 80%
    04:00 +10°C° 0 mm 2 mps 677 mmHg 79%
    05:00 +13°C° 0 mm 1 mps 678 mmHg 75%
    06:00 +14°C° 0 mm 1 mps 678 mmHg 71%
    07:00 +16°C° 0 mm 1 mps 678 mmHg 67%
    08:00 +20°C° 0 mm 1 mps 679 mmHg 59%
    09:00 +22°C° 0 mm 1 mps 679 mmHg 50%
    10:00 +23°C° 0 mm 0 mps 680 mmHg 42%
    11:00 +25°C° 0 mm 1 mps 680 mmHg 40%
    12:00 +26°C° 0 mm 1 mps 680 mmHg 38%
    13:00 +26°C° 0 mm 2 mps 680 mmHg 36%
    14:00 +26°C° 0 mm 2 mps 679 mmHg 39%
    15:00 +26°C° 0 mm 2 mps 679 mmHg 43%
    16:00 +25°C° 0 mm 2 mps 679 mmHg 46%
    17:00 +23°C° 0 mm 1 mps 679 mmHg 59%
    18:00 +21°C° 0 mm 1 mps 678 mmHg 71%
    19:00 +19°C° 0 mm 1 mps 678 mmHg 83%
    20:00 +18°C° 0 mm 1 mps 678 mmHg 85%
    21:00 +16°C° 0 mm 0 mps 678 mmHg 86%
    22:00 +15°C° 0 mm 0 mps 678 mmHg 87%
    23:00 +16°C° 0 mm 1 mps 678 mmHg 86%

    Tomorrow, 18 August, Sunday

    Time Temperature Precipitation Wind Pressure Humidity
    00:00 +16°C° 0 mm 1 mps 678 mmHg 85%
    01:00 +16°C° 0 mm 1 mps 678 mmHg 83%
    02:00 +16°C° 0 mm 2 mps 678 mmHg 82%
    03:00 +15°C° 0 mm 2 mps 677 mmHg 81%
    04:00 +15°C° 0 mm 2 mps 677 mmHg 79%
    05:00 +16°C° 0 mm 2 mps 677 mmHg 76%
    06:00 +18°C° 0 mm 2 mps 677 mmHg 73%
    07:00 +19°C° 0 mm 2 mps 678 mmHg 70%
    08:00 +22°C° 0 mm 1 mps 678 mmHg 61%
    09:00 +25°C° 0 mm 1 mps 679 mmHg 53%
    10:00 +28°C° 0 mm 1 mps 679 mmHg 44%
    11:00 +29°C° 0 mm 1 mps 679 mmHg 41%
    12:00 +30°C° 0 mm 1 mps 679 mmHg 39%
    13:00 +30°C° 0 mm 1 mps 679 mmHg 36%
    14:00 +29°C° 0 mm 1 mps 679 mmHg 42%
    15:00 +28°C° 0 mm 1 mps 678 mmHg 49%
    16:00 +27°C° 0 mm 1 mps 678 mmHg 56%
    17:00 +25°C° 0.1 mm 1 mps 678 mmHg 63%
    18:00 +23°C° 0.1 mm 1 mps 678 mmHg 71%
    19:00 +22°C° 0.1 mm 1 mps 677 mmHg 78%
    20:00 +21°C° 0.1 mm 1 mps 677 mmHg 80%
    21:00 +20°C° 0.1 mm 1 mps 678 mmHg 82%
    22:00 +18°C° 0.1 mm 2 mps 678 mmHg 84%
    23:00 +18°C° 0 mm 2 mps 678 mmHg 86%

    Day after tomorrow, 19 August, Monday

    Time Temperature Precipitation Wind Pressure Humidity
    00:00 +17°C° 0 mm 2 mps 678 mmHg 89%
    01:00 +16°C° 0 mm 2 mps 677 mmHg 92%
    02:00 +16°C° 0.3 mm 1 mps 678 mmHg 93%
    03:00 +16°C° 0.3 mm 1 mps 678 mmHg 95%
    04:00 +15°C° 0.3 mm 0 mps 678 mmHg 96%
    05:00 +15°C° 0.4 mm 0 mps 679 mmHg 95%
    06:00 +16°C° 0.4 mm 0 mps 679 mmHg 95%
    07:00 +16°C° 0.4 mm 0 mps 679 mmHg 94%
    08:00 +18°C° 1 mm 1 mps 679 mmHg 95%
    09:00 +18°C° 1 mm 1 mps 680 mmHg 95%
    10:00 +18°C° 1 mm 1 mps 680 mmHg 96%
    11:00 +19°C° 0.3 mm 1 mps 680 mmHg 90%
    12:00 +20°C° 0.3 mm 1 mps 680 mmHg 84%
    13:00 +22°C° 0.3 mm 1 mps 681 mmHg 78%
    14:00 +22°C° 0.1 mm 1 mps 681 mmHg 75%
    15:00 +22°C° 0.1 mm 1 mps 681 mmHg 72%
    16:00 +23°C° 0.1 mm 1 mps 681 mmHg 69%
    17:00 +21°C° 0.7 mm 1 mps 680 mmHg 78%
    18:00 +20°C° 0.7 mm 1 mps 680 mmHg 86%
    19:00 +18°C° 0.7 mm 1 mps 680 mmHg 94%
    20:00 +18°C° 1.6 mm 1 mps 680 mmHg 94%
    21:00 +16°C° 1.6 mm 2 mps 680 mmHg 94%
    22:00 +15°C° 1.6 mm 2 mps 680 mmHg 94%
    23:00 +15°C° 0.3 mm 2 mps 680 mmHg 94%

    20 August, Tuesday

    Time Temperature Precipitation Wind Pressure Humidity
    00:00 +15°C° 0.3 mm 2 mps 680 mmHg 93%
    01:00 +14°C° 0.3 mm 2 mps 680 mmHg 93%
    02:00 +15°C° 0.1 mm 2 mps 680 mmHg 92%
    03:00 +15°C° 0.1 mm 1 mps 680 mmHg 91%
    04:00 +15°C° 0.1 mm 1 mps 680 mmHg 90%
    05:00 +15°C° 0 mm 1 mps 680 mmHg 90%
    06:00 +16°C° 0 mm 1 mps 680 mmHg 90%
    07:00 +16°C° 0 mm 1 mps 680 mmHg 90%
    08:00 +16°C° 0 mm 0 mps 680 mmHg 87%
    09:00 +17°C° 0 mm 0 mps 680 mmHg 85%
    10:00 +18°C° 0 mm 0 mps 680 mmHg 82%
    11:00 +22°C° 0.1 mm 1 mps 680 mmHg 74%
    12:00 +24°C° 0.1 mm 1 mps 680 mmHg 66%
    13:00 +26°C° 0.1 mm 1 mps 680 mmHg 58%
    14:00 +24°C° 0.5 mm 2 mps 680 mmHg 66%
    15:00 +23°C° 0.5 mm 2 mps 680 mmHg 74%
    16:00 +21°C° 0.5 mm 2 mps 680 mmHg 82%
    17:00 +19°C° 2.9 mm 2 mps 680 mmHg 88%
    18:00 +17°C° 2.9 mm 2 mps 680 mmHg 93%
    19:00 +15°C° 2.9 mm 2 mps 681 mmHg 98%
    20:00 +14°C° 2.1 mm 1 mps 681 mmHg 98%
    21:00 +14°C° 2.1 mm 1 mps 682 mmHg 99%
    22:00 +14°C° 2.1 mm 1 mps 683 mmHg 99%
    23:00 +13°C° 0.8 mm 1 mps 683 mmHg 99%

    21 August, Wednesday

    Time Temperature Precipitation Wind Pressure Humidity
    00:00 +13°C° 0.8 mm 1 mps 683 mmHg 99%
    01:00 +13°C° 0.8 mm 1 mps 683 mmHg 99%
    02:00 +13°C° 1.7 mm 1 mps 683 mmHg 99%
    03:00 +13°C° 1.7 mm 1 mps 682 mmHg 99%
    04:00 +13°C° 1.7 mm 1 mps 682 mmHg 99%
    05:00 +13°C° 1 mm 1 mps 683 mmHg 99%
    06:00 +13°C° 1 mm 1 mps 683 mmHg 99%
    07:00 +13°C° 1 mm 1 mps 683 mmHg 98%
    08:00 +13°C° 0.2 mm 1 mps 683 mmHg 95%
    09:00 +14°C° 0.2 mm 1 mps 684 mmHg 92%
    10:00 +15°C° 0.2 mm 1 mps 684 mmHg 89%
    11:00 +16°C° 0.1 mm 1 mps 684 mmHg 85%
    12:00 +18°C° 0.1 mm 1 mps 684 mmHg 81%
    13:00 +17°C° 0.1 mm 2 mps 684 mmHg 77%
    14:00 +19°C° 0 mm 1 mps 684 mmHg 76%
    15:00 +19°C° 0 mm 1 mps 683 mmHg 74%
    16:00 +19°C° 0 mm 1 mps 683 mmHg 72%
    17:00 +18°C° 0 mm 1 mps 683 mmHg 78%
    18:00 +16°C° 0 mm 1 mps 683 mmHg 84%
    19:00 +15°C° 0 mm 1 mps 683 mmHg 89%
    20:00 +14°C° 0 mm 1 mps 683 mmHg 91%
    21:00 +13°C° 0 mm 1 mps 683 mmHg 93%
    22:00 +12°C° 0 mm 1 mps 683 mmHg 95%
    23:00 +12°C° 0 mm 1 mps 683 mmHg 95%

    22 August, Thursday

    Time Temperature Precipitation Wind Pressure Humidity
    00:00 +12°C° 0 mm 1 mps 683 mmHg 95%
    01:00 +12°C° 0 mm 1 mps 683 mmHg 94%
    02:00 +12°C° 0 mm 1 mps 682 mmHg 94%
    03:00 +12°C° 0 mm 1 mps 682 mmHg 94%
    04:00 +11°C° 0 mm 0 mps 682 mmHg 94%
    05:00 +12°C° 0 mm 0 mps 682 mmHg 91%
    06:00 +13°C° 0 mm 0 mps 683 mmHg 89%
    07:00 +14°C° 0 mm 0 mps 683 mmHg 86%
    08:00 +16°C° 0 mm 0 mps 683 mmHg 78%
    09:00 +20°C° 0 mm 1 mps 684 mmHg 70%
    10:00 +22°C° 0 mm 1 mps 684 mmHg 62%
    11:00 +23°C° 0.1 mm 1 mps 684 mmHg 60%
    12:00 +23°C° 0.1 mm 2 mps 684 mmHg 59%
    13:00 +24°C° 0.1 mm 2 mps 684 mmHg 58%
    14:00 +24°C° 0.6 mm 2 mps 684 mmHg 63%
    15:00 +23°C° 0.6 mm 2 mps 683 mmHg 69%
    16:00 +21°C° 0.6 mm 2 mps 683 mmHg 74%
    17:00 +21°C° 0.6 mm 1 mps 683 mmHg 80%
    18:00 +19°C° 0.6 mm 1 mps 683 mmHg 87%
    19:00 +18°C° 0.6 mm 1 mps 682 mmHg 94%
    20:00 +16°C° 0.3 mm 1 mps 682 mmHg 94%
    21:00 +15°C° 0.3 mm 1 mps 683 mmHg 94%
    22:00 +14°C° 0.3 mm 0 mps 683 mmHg 94%
    23:00 +14°C° 0 mm 1 mps 682 mmHg 93%
    Show more